SBMG

Details ICAO SBMG (MGF)
Name REGIONAL DE MARINGA SILVIO NAME JUNIOR
Region Brazil
Timezone America/Sao_Paulo (UTC-3.0)
Plans Departing 42
Arriving 35
Stats Elevation 1,788 ft / 545 m (AMSL)
Location -23.476112° -52.016404°
Runways 1
Magnetic Variation 18.584° W
Sunrise 2018-05-24 10:00:22 UTC / 2018-05-24 07:00:22 Local
Sunset 2018-05-24 20:52:20 UTC / 2018-05-24 17:52:20 Local
Advertisement - Login to hide

Runways

ID Width Length Bearing (true) Bearing (mag) Surface Threshold Offset Overrun Length
09 147 ft / 45 m 6,893 ft / 2,101 m 77.96° 96.54° Asphalt 0 ft / 0 m 195 ft / 59 m
27 147 ft / 45 m 6,893 ft / 2,101 m 257.95° 276.53° Asphalt 0 ft / 0 m 195 ft / 59 m

Map

Weather


0- 5 10 15 20 25 30 35+ Temperature / ° C

Clouds and Precipitation
Forecast for 2018-05-24 12:00 UTC. Updated an hour ago

Ground ~20,000 ft ~40,000 ft Winds

METAR

SBMG 241200Z 20001KT CAVOK 15/12 Q1023

TAF

Not found

Frequencies

Tower 131.95 MHz RDO
Warning: Do not use this data for real-world aviation or navigation. No guarantee of current accuracy is given.